Time,TemperatureF,DewpointF,PressureIn,WindDirection,WindDirectionDegrees,WindSpeedMPH,WindSpeedGustMPH,Humidity,HourlyPrecipIn,Conditions,Clouds,dailyrainin,SoftwareType,DateUTC
2013-02-12 00:00:00,33.7,26.6,30.09,WNW,288,0.0,0.0,75,0.00,,CLR,0.00,VWS V14.00,2013-02-12 06:00:00,
2013-02-12 00:05:00,33.8,26.7,30.09,WNW,288,0.0,0.0,75,0.00,,CLR,0.00,VWS V14.00,2013-02-12 06:05:00,
2013-02-12 00:10:00,33.9,26.8,30.08,WNW,288,0.0,0.0,75,0.00,,CLR,0.00,VWS V14.00,2013-02-12 06:10:00,
2013-02-12 00:15:00,33.9,26.8,30.09,WNW,288,0.0,0.0,75,0.00,,CLR,0.00,VWS V14.00,2013-02-12 06:15:00,
2013-02-12 00:20:00,34.0,26.9,30.08,WNW,288,0.0,0.0,75,0.00,,CLR,0.00,VWS V14.00,2013-02-12 06:20:00,
2013-02-12 00:25:00,34.2,27.1,30.08,WNW,288,0.0,0.0,75,0.00,,CLR,0.00,VWS V14.00,2013-02-12 06:25:00,
2013-02-12 00:30:00,34.3,26.9,30.08,WNW,288,0.0,0.0,74,0.00,,CLR,0.00,VWS V14.00,2013-02-12 06:30:00,
2013-02-12 00:35:00,34.4,27.0,30.09,WNW,288,0.0,0.0,74,0.00,,CLR,0.00,VWS V14.00,2013-02-12 06:35:00,
2013-02-12 00:40:00,34.2,26.8,30.09,WNW,288,0.0,0.0,74,0.00,,CLR,0.00,VWS V14.00,2013-02-12 06:40:00,
2013-02-12 00:45:00,34.0,26.6,30.09,WNW,288,0.0,0.0,74,0.00,,CLR,0.00,VWS V14.00,2013-02-12 06:45:00,
2013-02-12 00:50:00,33.8,26.4,30.09,WNW,288,0.0,0.0,74,0.00,,CLR,0.00,VWS V14.00,2013-02-12 06:50:00,
2013-02-12 00:55:00,33.5,26.4,30.09,WNW,288,0.0,0.0,75,0.00,,CLR,0.00,VWS V14.00,2013-02-12 06:55:00,
2013-02-12 01:00:00,33.3,26.2,30.08,WNW,288,0.0,0.0,75,0.00,,CLR,0.00,VWS V14.00,2013-02-12 07:00:00,
2013-02-12 01:05:00,33.1,25.7,30.08,WNW,288,0.0,0.0,74,0.00,,CLR,0.00,VWS V14.00,2013-02-12 07:05:00,
2013-02-12 01:10:00,32.8,25.4,30.08,WNW,288,0.0,0.0,74,0.00,,CLR,0.00,VWS V14.00,2013-02-12 07:10:00,
2013-02-12 01:15:00,32.4,25.0,30.08,WNW,288,0.0,0.0,74,0.00,,CLR,0.00,VWS V14.00,2013-02-12 07:15:00,
2013-02-12 01:20:00,32.1,25.1,30.09,WNW,288,0.0,0.0,75,0.00,,CLR,0.00,VWS V14.00,2013-02-12 07:20:00,
2013-02-12 01:25:00,31.9,25.2,30.08,WNW,288,0.0,0.0,76,0.00,,CLR,0.00,VWS V14.00,2013-02-12 07:25:00,
2013-02-12 01:30:00,31.6,25.2,30.08,WNW,288,0.0,0.0,77,0.00,,CLR,0.00,VWS V14.00,2013-02-12 07:30:00,
2013-02-12 01:35:00,31.4,25.0,30.09,WNW,288,0.0,0.0,77,0.00,,CLR,0.00,VWS V14.00,2013-02-12 07:35:00,
2013-02-12 01:40:00,31.2,24.8,30.09,WNW,288,0.0,0.0,77,0.00,,CLR,0.00,VWS V14.00,2013-02-12 07:40:00,
2013-02-12 01:45:00,31.0,24.6,30.09,WNW,288,0.0,0.0,77,0.00,,CLR,0.00,VWS V14.00,2013-02-12 07:45:00,
2013-02-12 01:50:00,30.8,24.5,30.09,WNW,288,0.0,0.0,77,0.00,,CLR,0.00,VWS V14.00,2013-02-12 07:50:00,
2013-02-12 01:55:00,30.5,24.2,30.09,WNW,288,0.0,0.0,77,0.00,,CLR,0.00,VWS V14.00,2013-02-12 07:55:00,
2013-02-12 02:00:00,30.4,24.4,30.09,WNW,288,0.0,0.0,78,0.00,,CLR,0.00,VWS V14.00,2013-02-12 08:00:00,
2013-02-12 02:05:00,30.3,24.6,30.09,WNW,288,0.0,0.0,79,0.00,,CLR,0.00,VWS V14.00,2013-02-12 08:05:00,
2013-02-12 02:10:00,30.2,24.5,30.09,WNW,288,0.0,0.0,79,0.00,,CLR,0.00,VWS V14.00,2013-02-12 08:10:00,
2013-02-12 02:15:00,30.1,24.4,30.09,WNW,288,0.0,0.0,79,0.00,,CLR,0.00,VWS V14.00,2013-02-12 08:15:00,
2013-02-12 02:20:00,30.0,24.6,30.09,WNW,288,0.0,0.0,80,0.00,,CLR,0.00,VWS V14.00,2013-02-12 08:20:00,
2013-02-12 02:25:00,30.0,24.6,30.09,WNW,288,0.0,0.0,80,0.00,,CLR,0.00,VWS V14.00,2013-02-12 08:25:00,
2013-02-12 02:30:00,29.9,24.5,30.09,WNW,288,0.0,0.0,80,0.00,,CLR,0.00,VWS V14.00,2013-02-12 08:30:00,
2013-02-12 02:35:00,29.6,24.2,30.09,WNW,288,0.0,0.0,80,0.00,,CLR,0.00,VWS V14.00,2013-02-12 08:35:00,
2013-02-12 02:40:00,29.5,24.1,30.09,WNW,288,0.0,0.0,80,0.00,,CLR,0.00,VWS V14.00,2013-02-12 08:40:00,
2013-02-12 02:45:00,29.4,24.0,30.09,WNW,288,0.0,0.0,80,0.00,,CLR,0.00,VWS V14.00,2013-02-12 08:45:00,
2013-02-12 02:50:00,29.3,23.9,30.09,WNW,288,0.0,0.0,80,0.00,,CLR,0.00,VWS V14.00,2013-02-12 08:50:00,
2013-02-12 02:55:00,29.3,24.2,30.09,WNW,288,0.0,0.0,81,0.00,,CLR,0.00,VWS V14.00,2013-02-12 08:55:00,
2013-02-12 03:00:00,29.2,24.1,30.09,WNW,288,0.0,0.0,81,0.00,,CLR,0.00,VWS V14.00,2013-02-12 09:00:00,
2013-02-12 03:05:00,29.2,24.1,30.09,WNW,288,0.0,0.0,81,0.00,,CLR,0.00,VWS V14.00,2013-02-12 09:05:00,
2013-02-12 03:10:00,29.3,24.2,30.09,WNW,288,0.0,0.0,81,0.00,,CLR,0.00,VWS V14.00,2013-02-12 09:10:00,
2013-02-12 03:15:00,29.3,24.5,30.09,WNW,288,0.0,0.0,82,0.00,,CLR,0.00,VWS V14.00,2013-02-12 09:15:00,
2013-02-12 03:20:00,29.2,24.4,30.09,WNW,288,0.0,0.0,82,0.00,,CLR,0.00,VWS V14.00,2013-02-12 09:20:00,
2013-02-12 03:25:00,29.1,24.3,30.09,WNW,288,0.0,0.0,82,0.00,,CLR,0.00,VWS V14.00,2013-02-12 09:25:00,
2013-02-12 03:30:00,29.1,24.3,30.08,WNW,288,0.0,0.0,82,0.00,,CLR,0.00,VWS V14.00,2013-02-12 09:30:00,
2013-02-12 03:35:00,29.1,24.3,30.08,WNW,288,0.0,0.0,82,0.00,,CLR,0.00,VWS V14.00,2013-02-12 09:35:00,
2013-02-12 03:40:00,29.1,24.3,30.08,WNW,288,0.0,0.0,82,0.00,,CLR,0.00,VWS V14.00,2013-02-12 09:40:00,
2013-02-12 03:45:00,29.0,24.5,30.08,WNW,288,0.0,0.0,83,0.00,,CLR,0.00,VWS V14.00,2013-02-12 09:45:00,
2013-02-12 03:50:00,29.0,24.5,30.08,WNW,288,0.0,0.0,83,0.00,,CLR,0.00,VWS V14.00,2013-02-12 09:50:00,
2013-02-12 03:55:00,28.9,24.4,30.09,WNW,288,0.0,0.0,83,0.00,,CLR,0.00,VWS V14.00,2013-02-12 09:55:00,
2013-02-12 04:00:00,28.8,24.3,30.09,WNW,288,0.0,0.0,83,0.00,,CLR,0.00,VWS V14.00,2013-02-12 10:00:00,
2013-02-12 04:05:00,28.9,24.4,30.08,WNW,288,0.0,0.0,83,0.00,,CLR,0.00,VWS V14.00,2013-02-12 10:05:00,
2013-02-12 04:10:00,28.8,24.3,30.08,WNW,288,0.0,0.0,83,0.00,,CLR,0.00,VWS V14.00,2013-02-12 10:10:00,
2013-02-12 04:15:00,28.7,24.2,30.09,WNW,288,0.0,0.0,83,0.00,,CLR,0.00,VWS V14.00,2013-02-12 10:15:00,
2013-02-12 04:20:00,28.6,24.1,30.08,WNW,288,0.0,0.0,83,0.00,,CLR,0.00,VWS V14.00,2013-02-12 10:20:00,
2013-02-12 04:25:00,28.5,24.0,30.08,WNW,288,0.0,0.0,83,0.00,,CLR,0.00,VWS V14.00,2013-02-12 10:25:00,
2013-02-12 04:30:00,28.5,24.0,30.09,WNW,288,0.0,0.0,83,0.00,,CLR,0.00,VWS V14.00,2013-02-12 10:30:00,
2013-02-12 04:35:00,28.3,23.8,30.09,WNW,288,0.0,0.0,83,0.00,,CLR,0.00,VWS V14.00,2013-02-12 10:35:00,
2013-02-12 04:40:00,28.2,23.7,30.08,WNW,288,0.0,0.0,83,0.00,,CLR,0.00,VWS V14.00,2013-02-12 10:40:00,
2013-02-12 04:45:00,28.2,23.7,30.08,WNW,288,0.0,0.0,83,0.00,,CLR,0.00,VWS V14.00,2013-02-12 10:45:00,
2013-02-12 04:50:00,28.1,23.6,30.08,WNW,288,0.0,0.0,83,0.00,,CLR,0.00,VWS V14.00,2013-02-12 10:50:00,
2013-02-12 04:55:00,28.0,23.5,30.08,WNW,288,0.0,0.0,83,0.00,,CLR,0.00,VWS V14.00,2013-02-12 10:55:00,
2013-02-12 05:00:00,28.0,23.5,30.09,WNW,288,0.0,0.0,83,0.00,,CLR,0.00,VWS V14.00,2013-02-12 11:00:00,
2013-02-12 05:05:00,28.0,23.5,30.08,WNW,288,0.0,0.0,83,0.00,,CLR,0.00,VWS V14.00,2013-02-12 11:05:00,
2013-02-12 05:10:00,28.1,23.9,30.08,WNW,288,0.0,0.0,84,0.00,,CLR,0.00,VWS V14.00,2013-02-12 11:10:00,
2013-02-12 05:15:00,28.2,24.0,30.09,WNW,288,0.0,0.0,84,0.00,,CLR,0.00,VWS V14.00,2013-02-12 11:15:00,
2013-02-12 05:20:00,28.2,24.0,30.09,WNW,288,0.0,0.0,84,0.00,,CLR,0.00,VWS V14.00,2013-02-12 11:20:00,
2013-02-12 05:25:00,28.1,23.9,30.09,WNW,288,0.0,0.0,84,0.00,,CLR,0.00,VWS V14.00,2013-02-12 11:25:00,
2013-02-12 05:30:00,28.0,23.8,30.08,WNW,288,0.0,0.0,84,0.00,,CLR,0.00,VWS V14.00,2013-02-12 11:30:00,
2013-02-12 05:35:00,27.9,23.7,30.08,WNW,288,0.0,0.0,84,0.00,,CLR,0.00,VWS V14.00,2013-02-12 11:35:00,
2013-02-12 05:40:00,28.0,23.8,30.08,WNW,288,0.0,0.0,84,0.00,,CLR,0.00,VWS V14.00,2013-02-12 11:40:00,
2013-02-12 05:45:00,27.9,23.7,30.08,WNW,288,0.0,0.0,84,0.00,,CLR,0.00,VWS V14.00,2013-02-12 11:45:00,
2013-02-12 05:50:00,28.1,23.9,30.08,WNW,288,0.0,0.0,84,0.00,,CLR,0.00,VWS V14.00,2013-02-12 11:50:00,
2013-02-12 05:55:00,28.0,23.8,30.08,WNW,288,0.0,0.0,84,0.00,,CLR,0.00,VWS V14.00,2013-02-12 11:55:00,
2013-02-12 06:00:00,27.8,23.6,30.08,WNW,288,0.0,0.0,84,0.00,,CLR,0.00,VWS V14.00,2013-02-12 12:00:00,
2013-02-12 06:05:00,27.7,23.5,30.08,WNW,288,0.0,0.0,84,0.00,,CLR,0.00,VWS V14.00,2013-02-12 12:05:00,
2013-02-12 06:10:00,27.5,23.3,30.08,WNW,288,0.0,0.0,84,0.00,,CLR,0.00,VWS V14.00,2013-02-12 12:10:00,
2013-02-12 06:15:00,27.5,23.6,30.09,WNW,288,0.0,0.0,85,0.00,,CLR,0.00,VWS V14.00,2013-02-12 12:15:00,
2013-02-12 06:20:00,27.5,23.6,30.09,WNW,288,0.0,0.0,85,0.00,,CLR,0.00,VWS V14.00,2013-02-12 12:20:00,
2013-02-12 06:25:00,27.6,23.7,30.09,WNW,288,0.0,0.0,85,0.00,,CLR,0.00,VWS V14.00,2013-02-12 12:25:00,
2013-02-12 06:30:00,27.5,23.6,30.08,WNW,288,0.0,0.0,85,0.00,,CLR,0.00,VWS V14.00,2013-02-12 12:30:00,
2013-02-12 06:35:00,27.4,23.5,30.08,WNW,288,0.0,0.0,85,0.00,,CLR,0.00,VWS V14.00,2013-02-12 12:35:00,
2013-02-12 06:40:00,27.5,23.6,30.08,WNW,288,0.0,0.0,85,0.00,,CLR,0.00,VWS V14.00,2013-02-12 12:40:00,
2013-02-12 06:45:00,27.7,23.8,30.08,WNW,288,0.0,0.0,85,0.00,,CLR,0.00,VWS V14.00,2013-02-12 12:45:00,
2013-02-12 06:50:00,27.6,23.7,30.07,WNW,288,0.0,0.0,85,0.00,,CLR,0.00,VWS V14.00,2013-02-12 12:50:00,
2013-02-12 06:55:00,27.4,23.5,30.08,WNW,288,0.0,0.0,85,0.00,,CLR,0.00,VWS V14.00,2013-02-12 12:55:00,
2013-02-12 07:00:00,27.3,23.7,30.08,WNW,288,0.0,0.0,86,0.00,,CLR,0.00,VWS V14.00,2013-02-12 13:00:00,
2013-02-12 07:05:00,27.1,23.5,30.08,WNW,288,0.0,0.0,86,0.00,,CLR,0.00,VWS V14.00,2013-02-12 13:05:00,
2013-02-12 07:10:00,27.0,23.4,30.08,WNW,288,0.0,0.0,86,0.00,,CLR,0.00,VWS V14.00,2013-02-12 13:10:00,
2013-02-12 07:15:00,27.0,23.4,30.09,WNW,288,0.0,0.0,86,0.00,,CLR,0.00,VWS V14.00,2013-02-12 13:15:00,
2013-02-12 07:20:00,27.3,23.7,30.09,WNW,288,0.0,0.0,86,0.00,,CLR,0.00,VWS V14.00,2013-02-12 13:20:00,
2013-02-12 07:25:00,27.5,24.1,30.09,WNW,288,0.0,0.0,87,0.00,,CLR,0.00,VWS V14.00,2013-02-12 13:25:00,
2013-02-12 07:30:00,27.6,24.0,30.09,WNW,288,0.0,0.0,86,0.00,,CLR,0.00,VWS V14.00,2013-02-12 13:30:00,
2013-02-12 07:35:00,27.7,24.3,30.10,WNW,288,0.0,0.0,87,0.00,,CLR,0.00,VWS V14.00,2013-02-12 13:35:00,
2013-02-12 07:40:00,27.8,24.4,30.10,WNW,288,0.0,0.0,87,0.00,,CLR,0.00,VWS V14.00,2013-02-12 13:40:00,
2013-02-12 07:45:00,27.9,24.5,30.10,WNW,288,0.0,0.0,87,0.00,,CLR,0.00,VWS V14.00,2013-02-12 13:45:00,
2013-02-12 07:50:00,28.4,25.0,30.11,WNW,288,0.0,0.0,87,0.00,,CLR,0.00,VWS V14.00,2013-02-12 13:50:00,
2013-02-12 07:55:00,28.9,25.5,30.11,WNW,288,0.0,0.0,87,0.00,,CLR,0.00,VWS V14.00,2013-02-12 13:55:00,
2013-02-12 08:00:00,29.2,26.1,30.11,WNW,288,0.0,0.0,88,0.00,,CLR,0.00,VWS V14.00,2013-02-12 14:00:00,
2013-02-12 08:05:00,29.6,26.5,30.10,WNW,288,0.0,0.0,88,0.00,,FEW250,0.00,VWS V14.00,2013-02-12 14:05:00,
2013-02-12 08:10:00,30.0,26.9,30.10,WNW,288,0.0,0.0,88,0.00,,FEW250,0.00,VWS V14.00,2013-02-12 14:10:00,
2013-02-12 08:15:00,30.6,27.5,30.09,WNW,288,0.0,0.0,88,0.00,,FEW250,0.00,VWS V14.00,2013-02-12 14:15:00,
2013-02-12 08:20:00,31.0,27.9,30.09,WNW,288,0.0,0.0,88,0.00,,FEW250,0.00,VWS V14.00,2013-02-12 14:20:00,
2013-02-12 08:25:00,31.4,28.0,30.10,WNW,288,0.0,0.0,87,0.00,,FEW250,0.00,VWS V14.00,2013-02-12 14:25:00,
2013-02-12 08:30:00,31.9,28.5,30.10,WNW,288,0.0,0.0,87,0.00,,FEW250,0.00,VWS V14.00,2013-02-12 14:30:00,
2013-02-12 08:35:00,32.4,28.7,30.10,WNW,288,0.0,1.0,86,0.00,,FEW250,0.00,VWS V14.00,2013-02-12 14:35:00,
2013-02-12 08:40:00,32.8,28.8,30.11,WNW,288,0.0,1.0,85,0.00,,FEW250,0.00,VWS V14.00,2013-02-12 14:40:00,
2013-02-12 08:45:00,33.3,29.0,30.10,WNW,288,0.0,1.0,84,0.00,,FEW250,0.00,VWS V14.00,2013-02-12 14:45:00,
2013-02-12 08:50:00,33.7,29.4,30.11,WNW,288,0.0,1.0,84,0.00,,FEW250,0.00,VWS V14.00,2013-02-12 14:50:00,
2013-02-12 08:55:00,34.1,29.2,30.11,WNW,288,1.0,2.0,82,0.00,,FEW250,0.00,VWS V14.00,2013-02-12 14:55:00,
2013-02-12 09:00:00,34.4,29.5,30.11,WNW,288,0.0,0.0,82,0.00,,FEW250,0.00,VWS V14.00,2013-02-12 15:00:00,
2013-02-12 09:05:00,34.9,29.7,30.10,North,357,1.0,4.0,81,0.00,,FEW250,0.00,VWS V14.00,2013-02-12 15:05:00,
2013-02-12 09:10:00,35.2,29.7,30.10,North,357,1.0,4.0,80,0.00,,FEW250,0.00,VWS V14.00,2013-02-12 15:10:00,
2013-02-12 09:15:00,35.5,29.3,30.10,North,357,2.0,4.0,78,0.00,,FEW250,0.00,VWS V14.00,2013-02-12 15:15:00,
2013-02-12 09:20:00,35.9,29.7,30.10,North,357,0.0,4.0,78,0.00,,FEW250,0.00,VWS V14.00,2013-02-12 15:20:00,
2013-02-12 09:25:00,36.3,30.1,30.09,North,357,0.0,4.0,78,0.00,,FEW250,0.00,VWS V14.00,2013-02-12 15:25:00,
2013-02-12 09:30:00,36.8,30.3,30.09,North,358,0.0,1.0,77,0.00,,FEW250,0.00,VWS V14.00,2013-02-12 15:30:00,
2013-02-12 09:35:00,37.4,30.9,30.08,NE,34,2.0,3.0,77,0.00,,BKN250,0.00,VWS V14.00,2013-02-12 15:35:00,
2013-02-12 09:40:00,37.5,30.3,30.07,NE,34,2.0,4.0,75,0.00,,BKN250,0.00,VWS V14.00,2013-02-12 15:40:00,
2013-02-12 09:45:00,37.7,30.2,30.06,North,1,2.0,5.0,74,0.00,,BKN250,0.00,VWS V14.00,2013-02-12 15:45:00,
2013-02-12 09:50:00,37.9,30.0,30.05,NNE,32,6.0,6.0,73,0.00,,BKN250,0.00,VWS V14.00,2013-02-12 15:50:00,
2013-02-12 09:55:00,38.1,29.9,30.06,NNE,14,4.0,7.0,72,0.00,,BKN250,0.00,VWS V14.00,2013-02-12 15:55:00,
2013-02-12 10:00:00,38.3,30.1,30.05,North,0,0.0,1.0,72,0.00,,BKN250,0.00,VWS V14.00,2013-02-12 16:00:00,
2013-02-12 10:05:00,38.6,30.0,30.04,North,2,0.0,5.0,71,0.00,,BKN250,0.00,VWS V14.00,2013-02-12 16:05:00,
2013-02-12 10:10:00,39.4,31.1,30.04,NE,45,0.0,5.0,72,0.00,,BKN250,0.00,VWS V14.00,2013-02-12 16:10:00,
2013-02-12 10:15:00,39.7,30.7,30.05,North,0,0.0,7.0,70,0.00,,BKN250,0.00,VWS V14.00,2013-02-12 16:15:00,
2013-02-12 10:20:00,39.9,30.6,30.05,NE,42,0.0,7.0,69,0.00,,BKN250,0.00,VWS V14.00,2013-02-12 16:20:00,
2013-02-12 10:25:00,40.4,31.4,30.05,SE,146,0.0,7.0,70,0.00,,BKN250,0.00,VWS V14.00,2013-02-12 16:25:00,
2013-02-12 10:30:00,40.7,31.0,30.05,NE,35,4.0,4.0,68,0.00,,BKN250,0.00,VWS V14.00,2013-02-12 16:30:00,
2013-02-12 10:35:00,40.6,30.5,30.06,NE,36,2.0,4.0,67,0.00,,OVC250,0.00,VWS V14.00,2013-02-12 16:35:00,
2013-02-12 10:40:00,40.5,30.0,30.06,NE,56,0.0,4.0,66,0.00,,OVC250,0.00,VWS V14.00,2013-02-12 16:40:00,
2013-02-12 10:45:00,40.7,30.2,30.06,NE,55,0.0,4.0,66,0.00,,OVC250,0.00,VWS V14.00,2013-02-12 16:45:00,
2013-02-12 10:50:00,40.9,30.1,30.07,NE,38,0.0,5.0,65,0.00,,OVC250,0.00,VWS V14.00,2013-02-12 16:50:00,
2013-02-12 10:55:00,41.0,30.1,30.07,ENE,66,0.0,5.0,65,0.00,,OVC250,0.00,VWS V14.00,2013-02-12 16:55:00,
2013-02-12 11:00:00,41.2,30.3,30.06,North,353,0.0,0.0,65,0.00,,OVC250,0.00,VWS V14.00,2013-02-12 17:00:00,
2013-02-12 11:05:00,41.7,30.8,30.06,SSE,148,0.0,1.0,65,0.00,,OVC250,0.00,VWS V14.00,2013-02-12 17:05:00,
2013-02-12 11:10:00,42.0,30.7,30.05,SSE,156,0.0,3.0,64,0.00,,OVC250,0.00,VWS V14.00,2013-02-12 17:10:00,
2013-02-12 11:15:00,42.4,31.1,30.05,NNE,21,3.0,5.0,64,0.00,,OVC250,0.00,VWS V14.00,2013-02-12 17:15:00,
2013-02-12 11:20:00,42.3,31.0,30.04,East,80,0.0,5.0,64,0.00,,OVC250,0.00,VWS V14.00,2013-02-12 17:20:00,
2013-02-12 11:25:00,42.7,31.4,30.04,NE,46,0.0,5.0,64,0.00,,OVC250,0.00,VWS V14.00,2013-02-12 17:25:00,
2013-02-12 11:30:00,42.9,31.2,30.04,ESE,104,0.0,2.0,63,0.00,,OVC250,0.00,VWS V14.00,2013-02-12 17:30:00,
2013-02-12 11:35:00,42.8,30.7,30.04,North,0,0.0,6.0,62,0.00,,OVC250,0.00,VWS V14.00,2013-02-12 17:35:00,
2013-02-12 11:40:00,42.9,30.8,30.04,North,7,1.0,6.0,62,0.00,,OVC250,0.00,VWS V14.00,2013-02-12 17:40:00,
2013-02-12 11:45:00,42.8,31.1,30.04,NNW,343,0.0,6.0,63,0.00,,OVC250,0.00,VWS V14.00,2013-02-12 17:45:00,
2013-02-12 11:50:00,43.3,30.8,30.04,North,8,1.0,6.0,61,0.00,,OVC250,0.00,VWS V14.00,2013-02-12 17:50:00,
2013-02-12 11:55:00,43.2,30.3,30.04,NE,52,0.0,6.0,60,0.00,,OVC250,0.00,VWS V14.00,2013-02-12 17:55:00,
2013-02-12 12:00:00,43.5,30.5,30.04,North,355,2.0,3.0,60,0.00,,OVC250,0.00,VWS V14.00,2013-02-12 18:00:00,
2013-02-12 12:05:00,43.8,31.2,30.05,East,88,0.0,4.0,61,0.00,,OVC250,0.00,VWS V14.00,2013-02-12 18:05:00,
2013-02-12 12:10:00,44.0,31.0,30.05,South,169,0.0,4.0,60,0.00,,OVC250,0.00,VWS V14.00,2013-02-12 18:10:00,
2013-02-12 12:15:00,44.2,30.8,30.05,SSE,162,0.0,4.0,59,0.00,,OVC250,0.00,VWS V14.00,2013-02-12 18:15:00,
2013-02-12 12:20:00,44.2,30.8,30.05,SE,146,0.0,4.0,59,0.00,,OVC250,0.00,VWS V14.00,2013-02-12 18:20:00,
2013-02-12 12:25:00,44.0,30.6,30.05,SE,146,1.0,5.0,59,0.00,,OVC250,0.00,VWS V14.00,2013-02-12 18:25:00,
2013-02-12 12:30:00,43.8,30.8,30.05,ENE,75,0.0,1.0,60,0.00,,OVC250,0.00,VWS V14.00,2013-02-12 18:30:00,
2013-02-12 12:35:00,43.8,31.2,30.05,ENE,75,0.0,3.0,61,0.00,,OVC250,0.00,VWS V14.00,2013-02-12 18:35:00,
2013-02-12 12:40:00,44.0,31.4,30.05,ENE,75,0.0,3.0,61,0.00,,OVC250,0.00,VWS V14.00,2013-02-12 18:40:00,
2013-02-12 12:45:00,43.9,31.3,30.04,SSE,168,0.0,7.0,61,0.00,,OVC250,0.00,VWS V14.00,2013-02-12 18:45:00,
2013-02-12 12:50:00,43.4,31.3,30.04,South,177,5.0,8.0,62,0.00,,OVC250,0.00,VWS V14.00,2013-02-12 18:50:00,
2013-02-12 12:55:00,43.4,31.3,30.03,SSE,167,0.0,8.0,62,0.00,,OVC250,0.00,VWS V14.00,2013-02-12 18:55:00,
2013-02-12 13:00:00,43.5,31.4,30.03,SSE,167,0.0,1.0,62,0.00,,OVC250,0.00,VWS V14.00,2013-02-12 19:00:00,
2013-02-12 13:05:00,43.7,31.5,30.03,SSE,167,5.0,5.0,62,0.00,,OVC250,0.00,VWS V14.00,2013-02-12 19:05:00,
2013-02-12 13:10:00,43.6,31.5,30.02,SSE,167,3.0,5.0,62,0.00,,OVC250,0.00,VWS V14.00,2013-02-12 19:10:00,
2013-02-12 13:15:00,43.5,31.4,30.03,SSE,164,0.0,6.0,62,0.00,,OVC250,0.00,VWS V14.00,2013-02-12 19:15:00,
2013-02-12 13:20:00,43.4,31.3,30.02,SSE,164,2.0,6.0,62,0.00,,OVC250,0.00,VWS V14.00,2013-02-12 19:20:00,
2013-02-12 13:25:00,43.5,31.4,30.02,SSE,164,5.0,6.0,62,0.00,,OVC250,0.00,VWS V14.00,2013-02-12 19:25:00,
2013-02-12 13:30:00,43.4,31.3,30.01,SSE,164,1.0,4.0,62,0.00,,OVC250,0.00,VWS V14.00,2013-02-12 19:30:00,
2013-02-12 13:35:00,43.4,31.3,30.01,SSE,164,0.0,4.0,62,0.00,,OVC250,0.00,VWS V14.00,2013-02-12 19:35:00,
2013-02-12 13:40:00,43.4,31.3,30.01,SSE,164,4.0,5.0,62,0.00,,OVC250,0.00,VWS V14.00,2013-02-12 19:40:00,
2013-02-12 13:45:00,43.6,31.5,30.00,SSE,164,0.0,5.0,62,0.00,,OVC250,0.00,VWS V14.00,2013-02-12 19:45:00,
2013-02-12 13:50:00,43.6,31.0,30.00,SSE,164,2.0,5.0,61,0.00,,OVC250,0.00,VWS V14.00,2013-02-12 19:50:00,
2013-02-12 13:55:00,43.8,31.6,30.00,SSE,164,0.0,5.0,62,0.00,,OVC250,0.00,VWS V14.00,2013-02-12 19:55:00,
2013-02-12 14:00:00,44.1,31.9,29.99,SSE,164,0.0,3.0,62,0.00,,OVC250,0.00,VWS V14.00,2013-02-12 20:00:00,
2013-02-12 14:05:00,44.6,32.4,30.00,SSE,164,0.0,3.0,62,0.00,,OVC250,0.00,VWS V14.00,2013-02-12 20:05:00,
2013-02-12 14:10:00,44.8,32.2,29.99,SSE,164,1.0,4.0,61,0.00,,OVC250,0.00,VWS V14.00,2013-02-12 20:10:00,
2013-02-12 14:15:00,44.6,32.0,29.99,SSE,164,3.0,5.0,61,0.00,,OVC250,0.00,VWS V14.00,2013-02-12 20:15:00,
2013-02-12 14:20:00,44.4,31.8,29.99,SSE,164,1.0,5.0,61,0.00,,OVC250,0.00,VWS V14.00,2013-02-12 20:20:00,
2013-02-12 14:25:00,44.3,31.7,29.99,SSE,164,0.0,5.0,61,0.00,,OVC250,0.00,VWS V14.00,2013-02-12 20:25:00,
2013-02-12 14:30:00,44.4,31.8,29.99,SSE,164,0.0,3.0,61,0.00,,OVC250,0.00,VWS V14.00,2013-02-12 20:30:00,
2013-02-12 14:35:00,44.4,31.8,29.99,SSE,164,0.0,4.0,61,0.00,,OVC200,0.00,VWS V14.00,2013-02-12 20:35:00,
2013-02-12 14:40:00,44.3,31.7,29.99,SSE,164,0.0,4.0,61,0.00,,OVC200,0.00,VWS V14.00,2013-02-12 20:40:00,
2013-02-12 14:45:00,44.2,31.6,29.99,South,185,6.0,8.0,61,0.00,,OVC200,0.00,VWS V14.00,2013-02-12 20:45:00,
2013-02-12 14:50:00,44.0,31.8,29.98,South,179,0.0,8.0,62,0.00,,OVC200,0.00,VWS V14.00,2013-02-12 20:50:00,
2013-02-12 14:55:00,44.1,31.9,29.97,South,179,2.0,8.0,62,0.00,,OVC200,0.00,VWS V14.00,2013-02-12 20:55:00,
2013-02-12 15:00:00,44.0,31.8,29.97,South,179,0.0,0.0,62,0.00,,OVC200,0.00,VWS V14.00,2013-02-12 21:00:00,
2013-02-12 15:05:00,44.3,32.1,29.96,South,179,0.0,2.0,62,0.00,,OVC200,0.00,VWS V14.00,2013-02-12 21:05:00,
2013-02-12 15:10:00,44.4,32.2,29.95,South,179,2.0,4.0,62,0.00,,OVC200,0.00,VWS V14.00,2013-02-12 21:10:00,
2013-02-12 15:15:00,44.3,31.7,29.96,South,179,0.0,4.0,61,0.00,,OVC200,0.00,VWS V14.00,2013-02-12 21:15:00,
2013-02-12 15:20:00,44.4,32.2,29.96,South,179,0.0,4.0,62,0.00,,OVC200,0.00,VWS V14.00,2013-02-12 21:20:00,
2013-02-12 15:25:00,44.5,31.9,29.96,South,179,0.0,4.0,61,0.00,,OVC200,0.00,VWS V14.00,2013-02-12 21:25:00,
2013-02-12 15:30:00,44.4,31.4,29.96,South,179,0.0,0.0,60,0.00,,OVC200,0.00,VWS V14.00,2013-02-12 21:30:00,
2013-02-12 15:35:00,44.4,31.4,29.96,South,179,0.0,0.0,60,0.00,,OVC200,0.00,VWS V14.00,2013-02-12 21:35:00,
2013-02-12 15:40:00,44.4,31.4,29.95,South,179,0.0,1.0,60,0.00,,OVC200,0.00,VWS V14.00,2013-02-12 21:40:00,
2013-02-12 15:45:00,44.4,31.4,29.95,South,179,0.0,1.0,60,0.00,,OVC200,0.00,VWS V14.00,2013-02-12 21:45:00,
2013-02-12 15:50:00,44.3,31.3,29.95,South,179,0.0,2.0,60,0.00,,OVC200,0.00,VWS V14.00,2013-02-12 21:50:00,
2013-02-12 15:55:00,44.4,31.4,29.94,South,179,0.0,2.0,60,0.00,,OVC200,0.00,VWS V14.00,2013-02-12 21:55:00,
2013-02-12 16:00:00,44.5,31.5,29.94,South,179,0.0,0.0,60,0.00,,OVC200,0.00,VWS V14.00,2013-02-12 22:00:00,
2013-02-12 16:05:00,44.5,31.1,29.94,South,179,0.0,1.0,59,0.00,,OVC200,0.00,VWS V14.00,2013-02-12 22:05:00,
2013-02-12 16:10:00,44.5,31.1,29.95,South,179,0.0,1.0,59,0.00,,OVC200,0.00,VWS V14.00,2013-02-12 22:10:00,
2013-02-12 16:15:00,44.7,32.1,29.94,South,179,0.0,1.0,61,0.00,,OVC200,0.00,VWS V14.00,2013-02-12 22:15:00,
2013-02-12 16:20:00,44.7,31.7,29.94,South,179,0.0,1.0,60,0.00,,OVC200,0.00,VWS V14.00,2013-02-12 22:20:00,
2013-02-12 16:25:00,44.6,31.2,29.94,South,179,0.0,1.0,59,0.00,,OVC200,0.00,VWS V14.00,2013-02-12 22:25:00,
2013-02-12 16:30:00,44.5,31.1,29.94,South,179,0.0,0.0,59,0.00,,OVC200,0.00,VWS V14.00,2013-02-12 22:30:00,
2013-02-12 16:35:00,44.5,31.1,29.95,South,179,0.0,0.0,59,0.00,,OVC200,0.00,VWS V14.00,2013-02-12 22:35:00,
2013-02-12 16:40:00,44.6,31.2,29.94,South,179,0.0,1.0,59,0.00,,OVC200,0.00,VWS V14.00,2013-02-12 22:40:00,
2013-02-12 16:45:00,44.5,30.7,29.95,South,179,0.0,1.0,58,0.00,,OVC200,0.00,VWS V14.00,2013-02-12 22:45:00,
2013-02-12 16:50:00,44.5,30.7,29.94,South,179,0.0,1.0,58,0.00,,OVC200,0.00,VWS V14.00,2013-02-12 22:50:00,
2013-02-12 16:55:00,44.4,30.6,29.95,South,179,0.0,1.0,58,0.00,,OVC200,0.00,VWS V14.00,2013-02-12 22:55:00,
2013-02-12 17:00:00,44.3,30.0,29.95,South,179,0.0,0.0,57,0.00,,OVC200,0.00,VWS V14.00,2013-02-12 23:00:00,
2013-02-12 17:05:00,44.3,30.5,29.95,South,179,0.0,0.0,58,0.00,,OVC250,0.00,VWS V14.00,2013-02-12 23:05:00,
2013-02-12 17:10:00,44.3,30.9,29.95,South,179,0.0,0.0,59,0.00,,OVC250,0.00,VWS V14.00,2013-02-12 23:10:00,
2013-02-12 17:15:00,44.2,30.4,29.94,South,179,0.0,1.0,58,0.00,,OVC250,0.00,VWS V14.00,2013-02-12 23:15:00,
2013-02-12 17:20:00,44.1,30.3,29.94,South,179,0.0,1.0,58,0.00,,OVC250,0.00,VWS V14.00,2013-02-12 23:20:00,
2013-02-12 17:25:00,44.0,30.2,29.94,South,179,0.0,1.0,58,0.00,,OVC250,0.00,VWS V14.00,2013-02-12 23:25:00,
2013-02-12 17:30:00,44.0,30.2,29.94,South,179,0.0,0.0,58,0.00,,OVC250,0.00,VWS V14.00,2013-02-12 23:30:00,
2013-02-12 17:35:00,44.0,30.6,29.93,South,179,0.0,2.0,59,0.00,,OVC250,0.00,VWS V14.00,2013-02-12 23:35:00,
2013-02-12 17:40:00,43.9,30.5,29.93,South,179,0.0,2.0,59,0.00,,OVC250,0.00,VWS V14.00,2013-02-12 23:40:00,
2013-02-12 17:45:00,43.7,30.3,29.93,South,179,0.0,2.0,59,0.00,,OVC250,0.00,VWS V14.00,2013-02-12 23:45:00,
2013-02-12 17:50:00,43.5,30.5,29.92,South,179,0.0,2.0,60,0.00,,OVC250,0.00,VWS V14.00,2013-02-12 23:50:00,
2013-02-12 17:55:00,43.3,30.4,29.92,South,179,0.0,2.0,60,0.00,,OVC250,0.00,VWS V14.00,2013-02-12 23:55:00,
2013-02-12 18:00:00,43.1,30.6,29.92,South,179,0.0,0.0,61,0.00,,OVC250,0.00,VWS V14.00,2013-02-13 00:00:00,
2013-02-12 18:05:00,43.0,30.5,29.92,South,179,0.0,0.0,61,0.00,,OVC200,0.00,VWS V14.00,2013-02-13 00:05:00,
2013-02-12 18:11:00,43.1,31.4,29.93,South,179,0.0,0.0,63,0.00,,OVC200,0.00,VWS V14.00,2013-02-13 00:11:00,
2013-02-12 18:15:00,42.8,30.7,29.92,South,179,0.0,0.0,62,0.00,,OVC200,0.00,VWS V14.00,2013-02-13 00:15:00,
2013-02-12 18:20:00,42.6,30.5,29.92,South,179,0.0,0.0,62,0.00,,OVC200,0.00,VWS V14.00,2013-02-13 00:20:00,
2013-02-12 18:26:00,42.5,30.4,29.92,South,179,0.0,0.0,62,0.00,,OVC200,0.00,VWS V14.00,2013-02-13 00:26:00,
2013-02-12 18:31:00,42.3,30.6,29.91,South,179,0.0,0.0,63,0.00,,OVC200,0.00,VWS V14.00,2013-02-13 00:31:00,
2013-02-12 18:36:00,42.0,30.7,29.91,South,179,0.0,2.0,64,0.00,,BKN250,0.00,VWS V14.00,2013-02-13 00:36:00,
2013-02-12 18:41:00,42.0,30.3,29.91,South,179,0.0,2.0,63,0.00,,BKN250,0.00,VWS V14.00,2013-02-13 00:41:00,
2013-02-12 18:45:00,42.0,30.3,29.90,South,179,0.0,2.0,63,0.00,,BKN250,0.00,VWS V14.00,2013-02-13 00:45:00,
2013-02-12 18:51:00,42.1,30.4,29.90,South,179,3.0,4.0,63,0.00,,BKN250,0.00,VWS V14.00,2013-02-13 00:51:00,
2013-02-12 18:55:00,42.1,30.8,29.90,South,179,1.0,4.0,64,0.00,,BKN250,0.00,VWS V14.00,2013-02-13 00:55:00,
2013-02-12 19:00:00,42.1,30.8,29.90,South,179,0.0,0.0,64,0.00,,BKN250,0.00,VWS V14.00,2013-02-13 01:00:00,
2013-02-12 19:06:00,42.1,31.2,29.90,South,179,0.0,0.0,65,0.00,,BKN250,0.00,VWS V14.00,2013-02-13 01:06:00,
2013-02-12 19:11:00,42.1,31.2,29.90,South,179,0.0,2.0,65,0.00,,BKN250,0.00,VWS V14.00,2013-02-13 01:11:00,
2013-02-12 19:16:00,42.0,31.1,29.90,South,179,0.0,2.0,65,0.00,,BKN250,0.00,VWS V14.00,2013-02-13 01:16:00,
2013-02-12 19:21:00,41.9,31.4,29.90,South,179,0.0,2.0,66,0.00,,BKN250,0.00,VWS V14.00,2013-02-13 01:21:00,
2013-02-12 19:26:00,41.8,31.3,29.91,South,179,0.0,2.0,66,0.00,,BKN250,0.00,VWS V14.00,2013-02-13 01:26:00,
2013-02-12 19:31:00,41.6,31.5,29.91,South,179,0.0,0.0,67,0.00,,BKN250,0.00,VWS V14.00,2013-02-13 01:31:00,
2013-02-12 19:36:00,41.5,31.4,29.91,South,179,0.0,0.0,67,0.00,,BKN250,0.00,VWS V14.00,2013-02-13 01:36:00,
2013-02-12 19:41:00,41.5,31.4,29.91,South,179,0.0,0.0,67,0.00,,BKN250,0.00,VWS V14.00,2013-02-13 01:41:00,
2013-02-12 19:46:00,41.4,31.6,29.90,South,179,0.0,0.0,68,0.00,,BKN250,0.00,VWS V14.00,2013-02-13 01:46:00,
2013-02-12 19:51:00,41.3,31.5,29.90,South,179,0.0,0.0,68,0.00,,BKN250,0.00,VWS V14.00,2013-02-13 01:51:00,
2013-02-12 19:56:00,41.2,31.8,29.89,South,179,0.0,0.0,69,0.00,,BKN250,0.00,VWS V14.00,2013-02-13 01:56:00,
2013-02-12 20:01:00,41.1,31.7,29.89,South,179,0.0,0.0,69,0.00,,BKN250,0.00,VWS V14.00,2013-02-13 02:01:00,
2013-02-12 20:06:00,41.1,31.7,29.89,South,179,0.0,0.0,69,0.00,,BKN250,0.00,VWS V14.00,2013-02-13 02:06:00,
2013-02-12 20:11:00,41.0,31.6,29.89,South,179,0.0,0.0,69,0.00,,BKN250,0.00,VWS V14.00,2013-02-13 02:11:00,
2013-02-12 20:16:00,41.0,32.0,29.89,South,179,0.0,0.0,70,0.00,,BKN250,0.00,VWS V14.00,2013-02-13 02:16:00,
2013-02-12 20:21:00,40.9,31.9,29.89,South,179,0.0,0.0,70,0.00,,BKN250,0.00,VWS V14.00,2013-02-13 02:21:00,
2013-02-12 20:26:00,40.8,32.1,29.89,South,179,0.0,0.0,71,0.00,,BKN250,0.00,VWS V14.00,2013-02-13 02:26:00,
2013-02-12 20:31:00,40.8,32.1,29.88,South,179,0.0,0.0,71,0.00,,BKN250,0.00,VWS V14.00,2013-02-13 02:31:00,
2013-02-12 20:36:00,40.8,32.1,29.88,South,179,0.0,0.0,71,0.00,,OVC200,0.00,VWS V14.00,2013-02-13 02:36:00,
2013-02-12 20:41:00,40.7,32.4,29.89,South,179,0.0,0.0,72,0.00,,OVC200,0.00,VWS V14.00,2013-02-13 02:41:00,
2013-02-12 20:46:00,40.8,32.5,29.89,South,179,0.0,0.0,72,0.00,,OVC200,0.00,VWS V14.00,2013-02-13 02:46:00,
2013-02-12 20:51:00,40.8,32.1,29.89,South,179,0.0,2.0,71,0.00,,OVC200,0.00,VWS V14.00,2013-02-13 02:51:00,
2013-02-12 20:56:00,41.0,32.0,29.89,South,179,0.0,2.0,70,0.00,,OVC200,0.00,VWS V14.00,2013-02-13 02:56:00,
2013-02-12 21:01:00,41.1,31.7,29.89,South,179,0.0,0.0,69,0.00,,OVC200,0.00,VWS V14.00,2013-02-13 03:01:00,
2013-02-12 21:06:00,41.1,31.7,29.88,South,179,0.0,0.0,69,0.00,,OVC200,0.00,VWS V14.00,2013-02-13 03:06:00,
2013-02-12 21:11:00,41.1,31.7,29.88,South,179,0.0,0.0,69,0.00,,OVC200,0.00,VWS V14.00,2013-02-13 03:11:00,
2013-02-12 21:16:00,41.2,31.8,29.88,South,179,0.0,0.0,69,0.00,,OVC200,0.00,VWS V14.00,2013-02-13 03:16:00,
2013-02-12 21:21:00,41.1,31.7,29.89,South,179,0.0,0.0,69,0.00,,OVC200,0.00,VWS V14.00,2013-02-13 03:21:00,
2013-02-12 21:26:00,41.1,31.7,29.89,South,179,0.0,0.0,69,0.00,,OVC200,0.00,VWS V14.00,2013-02-13 03:26:00,
2013-02-12 21:31:00,41.1,31.7,29.89,South,179,0.0,0.0,69,0.00,,OVC200,0.00,VWS V14.00,2013-02-13 03:31:00,
2013-02-12 21:36:00,41.1,31.4,29.89,South,179,0.0,0.0,68,0.00,,OVC200,0.00,VWS V14.00,2013-02-13 03:36:00,
2013-02-12 21:41:00,41.1,31.7,29.88,South,179,0.0,0.0,69,0.00,,OVC200,0.00,VWS V14.00,2013-02-13 03:41:00,
2013-02-12 21:46:00,41.0,31.6,29.88,South,179,0.0,0.0,69,0.00,,OVC200,0.00,VWS V14.00,2013-02-13 03:46:00,
2013-02-12 21:51:00,40.9,31.9,29.89,South,179,0.0,0.0,70,0.00,,OVC200,0.00,VWS V14.00,2013-02-13 03:51:00,
2013-02-12 21:56:00,40.9,31.9,29.89,South,179,0.0,0.0,70,0.00,,OVC200,0.00,VWS V14.00,2013-02-13 03:56:00,
2013-02-12 22:01:00,40.9,32.2,29.88,South,179,0.0,0.0,71,0.00,,OVC200,0.00,VWS V14.00,2013-02-13 04:01:00,
2013-02-12 22:06:00,40.7,32.0,29.89,South,179,0.0,0.0,71,0.00,,OVC200,0.00,VWS V14.00,2013-02-13 04:06:00,
2013-02-12 22:11:00,40.6,31.6,29.89,South,179,0.0,1.0,70,0.00,,OVC200,0.00,VWS V14.00,2013-02-13 04:11:00,
2013-02-12 22:16:00,40.7,31.7,29.89,South,179,0.0,2.0,70,0.00,,OVC200,0.00,VWS V14.00,2013-02-13 04:16:00,
2013-02-12 22:21:00,40.7,31.3,29.88,South,179,1.0,2.0,69,0.00,,OVC200,0.00,VWS V14.00,2013-02-13 04:21:00,
2013-02-12 22:26:00,40.7,31.3,29.89,South,179,0.0,3.0,69,0.00,,OVC200,0.00,VWS V14.00,2013-02-13 04:26:00,
2013-02-12 22:31:00,40.7,31.3,29.89,South,179,2.0,2.0,69,0.00,,OVC200,0.00,VWS V14.00,2013-02-13 04:31:00,
2013-02-12 22:36:00,40.6,31.2,29.89,South,179,0.0,2.0,69,0.00,,OVC100,0.00,VWS V14.00,2013-02-13 04:36:00,
2013-02-12 22:41:00,40.5,31.1,29.89,South,179,0.0,3.0,69,0.00,,OVC100,0.00,VWS V14.00,2013-02-13 04:41:00,
2013-02-12 22:46:00,40.4,31.4,29.90,South,179,0.0,3.0,70,0.00,,OVC100,0.00,VWS V14.00,2013-02-13 04:46:00,
2013-02-12 22:51:00,40.3,31.3,29.89,South,170,0.0,4.0,70,0.00,,OVC100,0.00,VWS V14.00,2013-02-13 04:51:00,
2013-02-12 22:56:00,40.1,31.1,29.89,South,169,0.0,4.0,70,0.00,,OVC100,0.00,VWS V14.00,2013-02-13 04:56:00,
2013-02-12 23:00:00,40.1,31.1,29.89,South,169,0.0,4.0,70,0.00,,OVC100,0.00,VWS V14.00,2013-02-13 05:00:00,
2013-02-12 23:05:00,40.1,31.1,29.89,South,169,0.0,3.0,70,0.00,,OVC100,0.00,VWS V14.00,2013-02-13 05:05:00,
2013-02-12 23:10:00,40.0,31.0,29.89,South,169,0.0,3.0,70,0.00,,OVC100,0.00,VWS V14.00,2013-02-13 05:10:00,
2013-02-12 23:15:00,39.9,30.9,29.89,South,169,0.0,4.0,70,0.00,,OVC100,0.00,VWS V14.00,2013-02-13 05:15:00,
2013-02-12 23:20:00,39.9,30.9,29.89,South,169,0.0,4.0,70,0.00,,OVC100,0.00,VWS V14.00,2013-02-13 05:20:00,
2013-02-12 23:25:00,39.8,30.8,29.89,South,169,1.0,4.0,70,0.00,,OVC100,0.00,VWS V14.00,2013-02-13 05:25:00,
2013-02-12 23:30:00,39.8,30.8,29.89,South,169,0.0,0.0,70,0.00,,OVC100,0.00,VWS V14.00,2013-02-13 05:30:00,
2013-02-12 23:35:00,39.8,30.8,29.89,South,169,0.0,0.0,70,0.00,,OVC200,0.00,VWS V14.00,2013-02-13 05:35:00,
2013-02-12 23:40:00,39.8,30.8,29.90,South,169,0.0,0.0,70,0.00,,OVC200,0.00,VWS V14.00,2013-02-13 05:40:00,
2013-02-12 23:45:00,39.7,30.7,29.89,South,169,0.0,1.0,70,0.00,,OVC200,0.00,VWS V14.00,2013-02-13 05:45:00,
2013-02-12 23:50:00,39.7,31.1,29.89,South,169,0.0,1.0,71,0.00,,OVC200,0.00,VWS V14.00,2013-02-13 05:50:00,
2013-02-12 23:55:00,39.7,30.7,29.89,South,169,0.0,2.0,70,0.00,,OVC200,0.00,VWS V14.00,2013-02-13 05:55:00,